Regional Weather Roundup
Issued by NWS Charleston, WV

Home | Current Version | Previous Version | Text Only | Print | Product List | Glossary Off
Versions: 1 2 3 4 5 6 7 8 9 10 11 12 13 14 15 16 17 18 19 20 21 22 23 24 25 26 27 28 29 30 31 32 33 34 35 36 37 38 39 40 41 42 43 44 45 46 47 48 49 50

000
ASUS41 KRLX 100410
RWRRLX
West Virginia Regional Weather Roundup
National Weather Service Charleston WV
1200 AM EDT THU JUL 10 2014

Note: "fair" indicates few or no clouds below 12,000 feet with no
significant weather and/or obstructions to visibility.

WVZ003-100500-
Northern Panhandle of West Virginia

CITY           SKY/WX    TMP DP  RH WIND       PRES   REMARKS
WHEELING       PTCLDY    67  56  67 E6        30.03R
$$

WVZ009-100500-
Northwest West Virginia

CITY           SKY/WX    TMP DP  RH WIND       PRES   REMARKS
PARKERSBURG    CLEAR     65  63  93 S3        30.04R
$$

WVZ006-100500-
Western West Virginia

CITY           SKY/WX    TMP DP  RH WIND       PRES   REMARKS
HUNTINGTON     CLEAR     68  62  81 N3        30.01R
$$

WVZ015-100500-
West Central West Virginia

CITY           SKY/WX    TMP DP  RH WIND       PRES   REMARKS
CHARLESTON     MOCLDY    70  68  93 CALM      30.02R
$$

WVZ031-100500-
North Central West Virginia

CITY           SKY/WX    TMP DP  RH WIND       PRES   REMARKS
CLARKSBURG     CLEAR     64  61  90 CALM      30.03R
MORGANTOWN     CLEAR     67  61  81 CALM      30.04R
$$

WVZ035-042-045-100500-
South Central West Virginia

CITY           SKY/WX    TMP DP  RH WIND       PRES   REMARKS
BECKLEY        PTCLDY    64  62  93 CALM      30.11R
BLUEFIELD      CLOUDY    70  63  78 W6        30.14R
LEWISBURG      MOCLDY    70  62  74 CALM      30.10R
$$

WVZ047-100500-
Northern Mountains of West Virginia

CITY           SKY/WX    TMP DP  RH WIND       PRES   REMARKS
ELKINS         CLEAR     61  59  93 CALM      30.09R FOG
$$

WVZ052-100500-
Eastern Panhandle of West Virginia

CITY           SKY/WX    TMP DP  RH WIND       PRES   REMARKS
MARTINSBURG    MOCLDY    72  67  84 W3        29.98S
PETERSBURG     PTCLDY    65  59  82 CALM      30.04R
$$


USA.gov is the U.S. government's official web portal to all federal, state and local government web resources and services.